Погода в Святом

Россия / Тверская область     57°15′17″N   33°21′05″E
темп.,
°C
ветер,
м/с
пор.,
м/с
влажн.,
%
обл.,
%
осадки,
мм/ч
давл.,
гПа
погр.,
м
6 марта, сб
сб600:00−9зсз23915 0.0 101689
03:00−9з269218 0.0 1017164
06:00−9зсз279653 0.1 1017281
09:00−8зсз379076 0.1 1018547
12:00−5зсз3572100 0.1 10171045
15:00−4з4662100 0.1 10151257
18:00−5юз397354 0.0 1013453
21:00−5юз5137376 0.0 1009973
7 марта, вс
вс700:00−4юз71592100 0.8 10031183
03:00−3юз71593100 2.3 9981221
06:00−3юз71593100 1.3 9931122
09:00−5зсз81388100 4.3 9921303
12:00−5зсз7125667 0.2 9932104
15:00−5з6138483 0.8 9931421
18:00−5з61285100 2.3 9921283
21:00−7зсз3792100 2.8 992448
8 марта, пн
пн800:00−11с279290 0.0 994211
03:00−9ссз5119095 0.1 997736
06:00−11сз41192100 0.1 999599
09:00−9сз51088100 0.2 1002903
12:00−9сз5983100 0.1 1004876
15:00−8сз5980100 0.3 10071033
18:00−10ссз5986100 0.1 1009825
21:00−13ссз4991100 0.2 1013583
9 марта, вт
вт900:00−16ссз4994100 0.1 1015426
03:00−17ссз3896100 0.1 1016325
06:00−18сз279993 0.0 1018222
09:00−17сз249388 0.0 1019242
12:00−11зсз237591 0.0 1018577
15:00−9юз128696 0.1 1017411
18:00−10вюв2394100 0.6 1016285
21:00−11в4794100 1.3 1017380
10 марта, ср
ср1000:00−14всв4991100 0.3 1018446
03:00−17всв389498 0.4 1020270
06:00−21всв26960 0.0 1022157
09:00−20всв35890 0.0 1024243
12:00−15всв25770 0.0 1025465
15:00−13всв23720 0.0 1025711
18:00−15всв228432 0.0 102545
21:00−19в239150 0.0 102668